[[{"header":{"parameterUnit":"m.s-1","parameterCategory":1,"la1":30.2991,"la2":30.254,"lo1":-89.0895,"lo2":-89.0444,"dy":0.0017,"dx":0.0017,"nx":28,"ny":28,"refTime":"2024-08-17T21:00:00:Z","depth":0,"parameterNumber":2,"parameterNumberName":"U-component_of_WINDS"},"data":[0,0,0,0,0,0,0,0,0,0,0,0,0,0,0,0,0,0,0,0,0,0,0,0,0,0,0,0,0,0,0,0,0,0,0,0,0,0,0,0,0,0,0,0,0,0,0,0,0,0,0,0,0,0,0,0,0,0,3.8514,3.8515,0,3.8666,3.8668,3.867,3.862,3.8616,3.8613,3.861,3.8773,3.878,3.8787,0,0,0,0,0,0,0,0,0,0,0,0,0,3.8186,3.8192,3.8513,3.8515,3.8517,3.8666,3.8668,3.867,3.862,3.8616,3.8612,3.8608,3.877,3.8779,3.8788,0,0,0,0,0,0,0,0,0,0,0,0,0,3.8333,3.8194,3.8513,3.851,3.8511,3.8666,3.8668,3.8671,3.8621,3.8616,3.8611,3.8606,3.8767,3.8778,3.8789,3.8957,0,0,3.8823,3.8828,0,0,0,0,0,0,0,0,3.8324,3.8345,3.8509,3.8511,3.8512,3.8619,3.8612,3.8767,3.8622,3.858,3.861,3.8604,3.8726,3.874,3.878,3.8965,3.8972,3.8824,3.8831,3.8836,3.8839,0,0,0,0,0,0,0,3.8314,3.8338,3.8574,3.8511,3.8513,3.8504,3.8519,3.8641,3.8679,3.8583,3.858,3.8598,3.8726,3.8769,3.8783,3.8974,3.8824,3.8834,3.884,3.8845,3.9308,3.9313,0,0,0,0,0,0,3.8302,3.833,3.8569,3.8579,3.8404,3.8514,3.8531,3.859,3.8677,3.8686,3.8602,3.8595,3.8753,3.877,3.8789,3.8993,3.8835,3.8846,3.8852,3.9302,3.9309,3.9315,0,0,0,0,0,0,3.8295,3.8324,3.8563,3.8453,3.8483,3.8524,3.8591,3.8595,3.8638,3.8692,3.8699,3.8639,3.8749,3.8773,3.8916,3.8998,3.8851,3.8861,3.9296,3.9304,3.9312,3.9401,0,0,0,0,0,0,3.8286,3.8322,3.8384,3.8455,3.8489,3.8686,3.8596,3.8602,3.8657,3.8649,3.8728,3.8737,3.8747,3.8899,3.8927,3.901,3.887,3.9288,3.9299,3.9309,3.9391,3.9411,3.9429,0,0,0,0,0,3.8274,3.8404,3.8387,3.8417,3.8568,3.869,3.871,3.8718,3.8664,3.8728,3.8763,3.8734,3.8984,3.8914,3.8945,3.9033,3.9283,3.9296,3.9309,3.9382,3.9407,3.9428,0,0,0,0,0,0,3.8343,3.8413,3.8396,3.8551,3.8615,3.8681,3.8762,3.8744,3.8825,3.8815,3.8823,3.8842,3.8988,3.9025,3.8946,3.9202,3.9126,3.9146,3.9172,3.9196,3.9215,3.9203,3.8879,0,0,0,0,0,3.8376,3.8467,3.8525,3.8657,3.869,3.8721,3.8775,3.8775,3.8842,3.8869,3.8914,3.8983,3.9077,3.9139,3.9228,3.9396,3.9414,3.9472,3.9491,3.9506,3.9523,3.9617,3.9644,3.9357,3.9357,3.9356,0,0,3.8445,3.8495,3.8553,3.8672,3.8721,3.8818,3.8744,3.8849,3.8922,3.8886,3.9023,3.9059,3.9136,3.9293,3.9364,3.9328,3.9607,3.9523,3.9534,3.9543,3.9633,3.966,3.9684,3.9365,3.9364,3.9362,0,0,3.8621,3.8668,3.8783,3.8834,3.891,3.893,3.8958,3.9028,3.905,3.9187,3.9163,3.9251,3.9413,3.9469,3.9519,3.9719,3.9696,3.9748,3.9847,3.9939,3.9961,3.9981,4.0054,4.008,3.9765,3.9765,3.9765,0,3.8699,3.8841,3.8846,3.8953,3.9008,3.8979,3.9097,3.9148,3.9249,3.9289,3.9246,3.9449,3.9499,3.9669,3.9718,3.9759,3.9793,3.9739,3.9957,3.9978,3.9997,4.0066,4.0093,3.9771,3.977,3.9769,3.9769,0,3.8933,3.9033,3.9118,3.9215,3.928,3.9393,3.9416,3.9481,3.9477,3.9503,3.9645,3.9704,3.9805,3.9846,3.9843,4.0017,3.9992,3.9954,3.9878,4.003,4.0095,4.0122,3.9779,3.9777,3.9775,3.9774,0,0,3.9155,3.9254,3.9285,3.933,3.9412,3.9491,3.9604,3.9702,3.9758,3.983,3.9926,4.0065,4.003,4.0087,4.0091,4.0171,4.0328,4.0123,4.0125,4.016,4.0525,4.0553,4.0584,4.0313,4.0318,4.0323,4.0519,0,3.9338,3.9534,3.9542,3.9722,3.9816,3.9791,3.989,3.9953,3.9981,4.0066,4.0098,4.0196,4.0142,4.0176,4.0255,4.0292,4.0401,4.0278,4.0405,4.041,4.0386,4.0618,4.0648,4.083,4.0544,4.0548,4.0551,0,3.9577,3.9655,3.9844,3.9914,3.9954,4.0042,4.0134,4.0215,4.0287,4.0302,4.0366,4.036,4.0478,4.0399,4.0564,4.048,4.0533,4.056,4.0567,4.0579,4.0489,4.0637,4.0888,4.0915,4.0592,4.0588,4.0586,0,3.9721,3.9873,4.0006,4.0045,4.0131,4.0194,4.0233,4.03,4.0359,4.044,4.0479,4.0573,4.0625,4.07,4.072,4.066,4.0886,4.0807,4.0903,4.0903,4.0951,4.0948,4.1215,4.0985,4.0985,4.0984,4.0984,0,3.9924,4.004,4.0072,4.0154,4.0285,4.0295,4.0425,4.046,4.0521,4.0611,4.0596,4.0682,4.0703,4.0793,4.081,4.0945,4.0969,4.0986,4.0989,4.0988,4.0985,4.1022,4.101,4.0992,4.099,4.0989,4.0988,0,4.0106,4.0131,4.0275,4.0344,4.0365,4.0458,4.0519,4.0599,4.0626,4.074,4.0768,4.0811,4.0917,4.0944,4.1071,4.1083,4.1243,4.1234,4.1218,4.1217,4.1312,4.1303,4.1612,4.1653,4.1396,4.1399,4.1401,0,4.0233,4.0322,4.0402,4.046,4.0502,4.0596,4.0656,4.0671,4.0735,4.0825,4.0895,4.0999,4.1083,4.1254,4.1298,4.1396,4.1389,4.1491,4.1404,4.14,4.1392,4.1386,4.1396,4.1507,4.151,4.1512,4.1514,0,4.0458,4.0467,4.0552,4.0644,4.0716,4.0789,4.086,4.0909,4.0934,4.1007,4.1114,4.118,4.1309,4.1414,4.1513,4.1556,4.1541,4.1541,4.1569,4.1568,4.1555,4.1564,4.1263,4.1534,4.1532,4.1531,4.153,4.1529,4.0617,4.0696,4.0764,4.0861,4.0916,4.0982,4.1061,4.1098,4.1187,4.1292,4.1297,4.1414,4.1487,4.1618,4.1667,4.1761,4.173,4.177,4.178,4.179,4.1798,4.154,4.1779,4.1778,4.1778,4.1778,4.1777,0,4.0841,4.0884,4.0974,4.1072,4.1149,4.1127,4.1204,4.1271,4.1374,4.1442,4.1525,4.165,4.1752,4.1804,4.1906,4.1971,4.1967,4.1997,4.1993,4.2003,4.1819,4.1785,4.1999,4.1999,4.1999,4.1999,4.1999,4.1999,4.0967,4.1099,4.1117,4.1277,4.132,4.1433,4.148,4.1542,4.1597,4.1736,4.182,4.1853,4.1916,4.2023,4.2116,4.2129,4.2168,4.2203,4.2212,4.2039,4.2016,4.1995,4.1963,4.2211,4.2211,4.2389,4.239,4.2392]},{"header":{"parameterUnit":"m.s-1","parameterCategory":1,"la1":30.2991,"la2":30.254,"lo1":-89.0895,"lo2":-89.0444,"dy":0.0017,"dx":0.0017,"nx":28,"ny":28,"refTime":"2024-08-17T21:00:00:Z","depth":0,"parameterNumber":3,"parameterNumberName":"V-component_of_WINDS"},"data":[0,0,0,0,0,0,0,0,0,0,0,0,0,0,0,0,0,0,0,0,0,0,0,0,0,0,0,0,0,0,0,0,0,0,0,0,0,0,0,0,0,0,0,0,0,0,0,0,0,0,0,0,0,0,0,0,0,0,2.7078,2.7081,0,2.7312,2.7315,2.7317,2.735,2.7347,2.7345,2.7343,2.7588,2.7596,2.7605,0,0,0,0,0,0,0,0,0,0,0,0,0,2.6665,2.6673,2.7078,2.7081,2.7084,2.7312,2.7315,2.7318,2.735,2.7347,2.7345,2.7342,2.7585,2.7595,2.7606,0,0,0,0,0,0,0,0,0,0,0,0,0,2.6866,2.6675,2.7078,2.7127,2.7134,2.7311,2.7315,2.7319,2.7351,2.7347,2.7344,2.7341,2.7582,2.7594,2.7607,2.7753,0,0,2.7646,2.7652,0,0,0,0,0,0,0,0,2.6855,2.6882,2.7117,2.7124,2.7132,2.7298,2.7259,2.7465,2.7351,2.7269,2.7343,2.7339,2.7495,2.7514,2.7566,2.7764,2.7775,2.7648,2.7655,2.7661,2.7665,0,0,0,0,0,0,0,2.6841,2.6872,2.7171,2.712,2.713,2.714,2.7165,2.7298,2.7398,2.7275,2.7278,2.7305,2.7498,2.7553,2.7572,2.7778,2.7647,2.7659,2.7667,2.7672,2.811,2.8114,0,0,0,0,0,0,2.6817,2.686,2.7163,2.7178,2.6982,2.715,2.7178,2.7248,2.7396,2.7415,2.7308,2.7306,2.7533,2.7557,2.7581,2.7762,2.7661,2.7673,2.768,2.8106,2.8111,2.8115,0,0,0,0,0,0,2.6808,2.6844,2.7154,2.702,2.706,2.716,2.7239,2.7255,2.731,2.742,2.7439,2.7346,2.7531,2.7562,2.771,2.7771,2.7679,2.769,2.8101,2.8107,2.8113,2.8125,0,0,0,0,0,0,2.6796,2.684,2.6895,2.7021,2.7067,2.7278,2.7243,2.7262,2.7331,2.7331,2.7461,2.7479,2.7531,2.769,2.7722,2.7787,2.77,2.8096,2.8104,2.8111,2.812,2.8131,2.814,0,0,0,0,0,2.6781,2.6891,2.6898,2.6935,2.7137,2.7281,2.7308,2.7364,2.7336,2.7393,2.7464,2.7475,2.7759,2.7705,2.7742,2.7811,2.8093,2.8102,2.811,2.8115,2.8129,2.814,0,0,0,0,0,0,2.6772,2.6908,2.6918,2.707,2.7164,2.7286,2.736,2.7376,2.748,2.7476,2.7543,2.7572,2.7716,2.7778,2.7716,2.7961,2.7924,2.794,2.7915,2.7929,2.7938,2.7921,2.7711,0,0,0,0,0,2.6787,2.689,2.7004,2.7128,2.7174,2.7259,2.7323,2.7358,2.7459,2.7499,2.7581,2.7679,2.7791,2.7863,2.7971,2.8129,2.8159,2.8194,2.8204,2.8212,2.8227,2.8316,2.8334,2.8144,2.8144,2.8144,0,0,2.6821,2.6908,2.6969,2.7129,2.7205,2.7312,2.7292,2.7406,2.7488,2.7517,2.7661,2.7724,2.7839,2.7992,2.8063,2.8048,2.8285,2.8224,2.8229,2.8239,2.8327,2.8345,2.8361,2.815,2.8149,2.8148,0,0,2.6937,2.7012,2.7124,2.7201,2.7316,2.7372,2.7398,2.7519,2.7562,2.7707,2.7731,2.7829,2.8019,2.81,2.8166,2.8313,2.8328,2.8347,2.8401,2.8487,2.8502,2.8516,2.857,2.8588,2.836,2.836,2.836,0,2.6965,2.7125,2.718,2.7294,2.7364,2.7393,2.7509,2.7581,2.7727,2.7776,2.7755,2.7995,2.8074,2.8247,2.8283,2.8335,2.8369,2.8333,2.8495,2.8509,2.8523,2.8575,2.8595,2.8362,2.8361,2.8361,2.8361,0,2.7155,2.7266,2.7343,2.7481,2.756,2.7674,2.7748,2.7821,2.7849,2.7907,2.8056,2.8151,2.828,2.8324,2.8353,2.8502,2.8489,2.8481,2.8446,2.8542,2.8592,2.8613,2.8364,2.8363,2.8363,2.8363,0,0,2.7272,2.7439,2.7466,2.753,2.7659,2.7748,2.7863,2.7988,2.805,2.815,2.825,2.841,2.8404,2.8479,2.8517,2.8593,2.8705,2.8577,2.858,2.8599,2.8878,2.8884,2.8906,2.8715,2.8719,2.8722,2.8869,0,2.7405,2.761,2.7663,2.7839,2.7944,2.7973,2.8075,2.8166,2.8223,2.8322,2.8387,2.85,2.8482,2.8527,2.8603,2.8675,2.8763,2.8665,2.8811,2.8816,2.8783,2.8932,2.8939,2.9073,2.8889,2.8892,2.8894,0,2.7587,2.7689,2.7874,2.7991,2.8037,2.8127,2.8246,2.8339,2.8444,2.8481,2.8564,2.8595,2.8719,2.8675,2.8849,2.8781,2.8844,2.8889,2.8895,2.8913,2.8862,2.8955,2.9117,2.9137,2.8926,2.8923,2.8921,0,2.7656,2.784,2.7975,2.8028,2.8167,2.823,2.8291,2.8392,2.8464,2.8568,2.8616,2.8734,2.8799,2.8891,2.8954,2.8916,2.9122,2.9084,2.9158,2.9157,2.9202,2.9199,2.9377,2.9239,2.9239,2.9238,2.9238,0,2.78,2.7913,2.8008,2.8091,2.8219,2.8279,2.8405,2.8468,2.8558,2.8655,2.8688,2.878,2.8856,2.8959,2.9009,2.9146,2.9174,2.9209,2.9222,2.9208,2.9203,2.9251,2.9244,2.9244,2.9243,2.9242,2.9241,0,2.7899,2.7967,2.8117,2.8235,2.8268,2.8357,2.846,2.8544,2.8601,2.8725,2.8757,2.8849,2.8972,2.9043,2.9197,2.9231,2.9384,2.9391,2.9348,2.9354,2.9425,2.9418,2.9642,2.9676,2.9513,2.9514,2.9516,0,2.7987,2.8074,2.8202,2.8269,2.833,2.8438,2.8511,2.8574,2.8649,2.8775,2.8844,2.8967,2.907,2.9264,2.9346,2.9465,2.9477,2.9547,2.9495,2.9478,2.948,2.9475,2.9485,2.9557,2.9558,2.9559,2.956,0,2.8136,2.8165,2.8268,2.8384,2.8469,2.8564,2.8658,2.8711,2.879,2.8873,2.8998,2.9077,2.9234,2.9358,2.9483,2.9548,2.9569,2.9575,2.96,2.9587,2.9559,2.9577,2.9374,2.9571,2.957,2.9569,2.9568,2.9568,2.8234,2.8314,2.8416,2.853,2.8607,2.8694,2.8778,2.8846,2.895,2.9082,2.9113,2.9245,2.9349,2.952,2.9588,2.9693,2.9681,2.9716,2.9725,2.9733,2.9736,2.954,2.9716,2.9716,2.9716,2.9715,2.9715,0,2.8387,2.8454,2.8558,2.8687,2.8778,2.8786,2.8891,2.8966,2.9081,2.9175,2.9275,2.9419,2.9539,2.963,2.9753,2.982,2.9833,2.985,2.9847,2.9862,2.9738,2.9706,2.9838,2.9838,2.9838,2.9838,2.9838,2.9838,2.8477,2.8612,2.8654,2.8828,2.8895,2.9023,2.9082,2.9163,2.9239,2.9398,2.9497,2.9554,2.9649,2.9779,2.989,2.9914,2.9959,2.9976,3.0001,2.9884,2.9871,2.9858,2.9828,2.9984,2.9985,3.0117,3.0118,3.0119]}]]